Regional Weather Roundup
Issued by NWS Sterling, VA

Home | Current Version | Previous Version | Graphics & Text | Print | Product List | Glossary On
Versions: 1 2 3 4 5 6 7 8 9 10 11 12 13 14 15 16 17 18 19 20 21 22 23 24 25 26 27 28
000
ASUS41 KLWX 200011
RWRLWX

REGIONAL WEATHER ROUNDUP
NATIONAL WEATHER SERVICE BALTIMORE MD/WASHINGTON DC
800 PM EDT TUE SEP 19 2017

Note: "FAIR" indicates few or no clouds below 12,000 feet
with no significant weather and/or obstructions to visibility.
 TC=TEMPERATURE CELSIUS

 * =Non NWS site. Station does not report precipitation (e.g. rain,
    snow, etc.), thunder, or fog.

DCZ001-MDZ009-015-VAZ040>042-051-053>054-200100-
WASHINGTON METRO

CITY           SKY/WX    TMP DP  RH WIND       PRES   REMARKS
WASHINGTON NAT PTCLDY    78  66  66 N10       29.90S
DULLES         PTCLDY    77  67  71 N7        29.92R
ANDREWS AFB    PTCLDY    76  65  67 NW10      29.89S
FT BELVOIR     CLEAR     74  66  75 NW3       29.90S
QUANTICO       CLEAR     76  67  73 N6        29.91R
COLLEGE PARK*  CLEAR     75  65  72 NW3       29.89F
LEESBURG*      CLEAR     73  70  88 NW3       29.93S
MANASSAS*      CLEAR     73  66  78 NW5       29.92S
GAITHERSBURG*  CLEAR     69  66  90 CALM      29.93F

$$

MDZ006>007-011-014-200100-
BALTIMORE METRO

CITY           SKY/WX    TMP DP  RH WIND       PRES   REMARKS
BWI AIRPORT    PTCLDY    75  68  78 NW6       29.89S
MD SCIENCE CTR   N/A     79  67  66 MISG      29.89S
MARTIN STATE   PTCLDY    79  72  78 NW8       29.89R
ANNAPOLIS      CLOUDY    79  71  76 NE3       29.88S
FORT MEADE*    CLEAR     72  64  78 NW5       29.91F

$$

MDZ012-015-019>023-200100-
MARYLAND EASTERN SHORE

CITY           SKY/WX    TMP DP  RH WIND       PRES   REMARKS
OCEAN CITY     LGT RAIN N/A N/A N/A N15G24    29.82R
SALISBURY      CLOUDY    70  68  93 N15G23    29.84S
CAMBRIDGE*     CLOUDY    72  70  94 N5        29.87R
EASTON*        PTCLDY    73  68  83 N7        29.91S

$$

MDZ017>025-200100-
SOUTHERN MARYLAND

CITY           SKY/WX    TMP DP  RH WIND       PRES   REMARKS
PATUXENT RIVER CLOUDY    73  69  87 N14       29.87F
ST INIGOES     LGT RAIN  73  70  90 VRB3      29.87S
LEONARDTOWN*   CLOUDY    72  68  88 N5        29.91R

$$

MDZ003>005-200100-
NORTH CENTRAL MARYLAND

CITY           SKY/WX    TMP DP  RH WIND       PRES   REMARKS
FREDERICK*     CLEAR     72  66  83 MISG      29.95S
HAGERSTOWN APT CLEAR     75  65  70 N6        29.95R
WESTMINSTER*   CLEAR     73  66  78 N5        29.94S

$$

MDZ501>502-200100-
WESTERN MARYLAND

CITY           SKY/WX    TMP DP  RH WIND       PRES   REMARKS
OAKLAND*       CLEAR     64  59  82 CALM      30.03S
CUMBERLAND*    CLEAR     77  61  57 CALM      29.99S

$$

VAZ025>031-200100-
SHENANDOAH VALLEY

CITY           SKY/WX    TMP DP  RH WIND       PRES   REMARKS
WINCHESTER*    CLEAR     66  63  88 CALM      29.95S
FRONT ROYAL*   CLEAR     72  64  78 CALM      29.93S
LURAY*         CLEAR     72  63  73 CALM      29.95S
NEW MARKET*    CLEAR     70  62  76 CALM      29.94R
STAUNTON*      CLEAR     69  64  83 CALM      29.98S
WAYNESBORO*    CLEAR     69  64  84 SW3       29.98R

$$

WVZ021-048>050-054>055-200100-
EASTERN WEST VIRGINIA PANHANDLE

CITY           SKY/WX    TMP DP  RH WIND       PRES   REMARKS
MARTINSBURG    CLEAR     76  62  62 N3        29.93S
PETERSBURG*    CLEAR     73  69  89 CALM      29.96

$$

VAZ036>039-050-200100-
CENTRAL FOOTHILLS

CITY           SKY/WX    TMP DP  RH WIND       PRES   REMARKS
CHARLOTTESVILL CLEAR     75  66  73 N3        29.94R
CULPEPER*      CLEAR     69  66  90 NW3       29.93S
ORANGE*        CLEAR     70  63  78 CALM      29.92F
GORDONSVILLE*  CLEAR     70  67  89 CALM      29.92S
WARRENTON*     CLEAR     67  62  81 CALM      29.92S

$$

VAZ055>057-200100-
NORTH AND CENTRAL PIEDMONT

CITY           SKY/WX    TMP DP  RH WIND       PRES   REMARKS
FREDERICKSBRG* CLEAR     75  67  75 NW3       29.90R
STAFFORD*      CLEAR     69  69 100 CALM      29.95S

$$

NCZ024-NYZ072-PAZ021-071-VAZ022-071-200100-
OTHER REGIONAL OBSERVATIONS

CITY           SKY/WX    TMP DP  RH WIND       PRES   REMARKS
NEW YORK CITY  CLOUDY    69  66  90 NE8G17    29.91F
PHILADELPHIA   CLOUDY    74  66  76 N10       29.87S
PITTSBURGH     PTCLDY    75  62  64 E5        29.97R
ROANOKE        PTCLDY    76  65  68 CALM      29.98R
RICHMOND       PTCLDY    74  65  73 N6        29.89S
RALEIGH        PTCLDY    72  63  73 CALM      29.95R

$$

ANZ530>537-200100-
MARINE OBSERVATIONS

STATION/POSITION TIME  TEMP    WIND        PRES
                       AIR SEA DIR/SP/G
                 (UTC) (F)     (DEG/KT/KT) (MB)
THOMAS PT LIGHT  0000   77 75   40/  9/ 10   N/A
BALT KEY BRIDGE  2342   78     320/ 13/ 14 1011.6S
COVE POINT       2342   75      10/ 19/ 24 1011.9F
LEWISETTA        2342   72 76   50/  6/ 10 1011.7R
SOLOMONS ISLAND  2342   74 76  340/  7/  9 1011.3F
PINEY POINT      2342           60/  5/  8   N/A

$$





USA.gov is the U.S. government's official web portal to all federal, state and local government web resources and services.